Location: Strawberry
(33.0916°N, 80.0306°W)
Time: 07:31:23
(UTC+00:00)

BlueWalker 3 - Pass Details

Date: 10 December 2022
Orbit: 499 x 517 km, 53.2° (Epoch: 29 January)

Event Time Altitude Azimuth Distance (km) Brightness Sun altitude
Rises 23:09:17 0° 327° (NNW) 2,621 5.8 -11.5°
Reaches altitude 10° 23:11:49 10° 342° (NNW) 1,728 4.6 -12.0°
Maximum altitude 23:15:01 24° 37° (NE) 1,096 3.2 -12.7°
Enters shadow 23:16:07 21° 63° (ENE) 1,188 3.2 -12.9°
